sat.trackr.live / text

‹ back to catalog

STARLINK-36889

NORAD 68006 · 2026-039W

PAYLOAD ACTIVE UNKNOWN

§ Identity

Operator
Country
US
Launch date
2026-02-27
Launch site
AFETR
Launch vehicle
Mass (kg)
RCS (m²)

Purposes: comms

External: N2YO · Heavens-Above · Gunter

§ Orbital elements

Epoch: 2026-09-19T16:49:47.572320Z

Period
94.27 min
Inclination
43.0048°
Eccentricity
0.0003287
Mean motion
15.27605281 rev/d
Perigee alt
480.7 km
Apogee alt
485.2 km
Semi-major
6,861.1 km
B*
6.7858e-4
RAAN
33.3717°
Arg perigee
297.6602°
Mean anomaly
62.3916°
Rev number
3,137

§ Raw data

STARLINK-368891 68006U 26039W   26262.70124505  .00018473  00000+0  67858-3 0  99912 68006  43.0048  33.3717 0003287 297.6602  62.3916 15.27605281 31375

JSON: /api/v1/satellites/68006 · /tle

For live sub-satellite position, see the globe view (requires WebGL).

§ Visibility from observer

Set your observer location to see the next 7 days of passes ≥ 10°. The values pass through the URL so the page stays shareable.

No JS? Fill the form by hand. The geolocation button needs JavaScript.